START_TIME,STEP,MOV.,M34,t_acc.,L5,t_acc.,L18,t_acc.,L14,t_acc.
1979-03-10 21:00:22.230 ,1,1,0.,12.0,0.,12.0,0.,12.0,0.,12.0
1979-03-10 21:00:34.230 ,1,1,0.,12.0,0.,12.0,0.,12.0,0.,12.0
1979-03-10 21:00:46.230 ,0,1,0.,12.0,0.,12.0,0.,12.0,0.,12.0
1979-03-10 21:00:58.230 ,0,1,0.,12.0,0.,12.0,0.,12.0,0.,12.0
1979-03-10 21:01:10.230 ,0,1,0.,12.0,0.,12.0,0.,12.0,0.,12.0
1979-03-10 21:01:22.230 ,0,1,0.,12.0,0.,12.0,0.,12.0,0.,12.0
1979-03-10 21:01:34.230 ,1,1,0.,12.0,0.,12.0,0.,12.0,0.,12.0
1979-03-10 21:01:46.230 ,1,1,0.,12.0,0.,12.0,0.,12.0,0.,12.0
1979-03-10 21:01:58.230 ,2,1,0.,12.0,0.,12.0,0.,12.0,0.,12.0
1979-03-10 21:02:10.230 ,2,1,0.,12.0,0.,12.0,0.,12.0,0.,12.0
1979-03-10 21:02:22.230 ,3,1,0.,12.0,0.,12.0,0.,12.0,0.,12.0
1979-03-10 21:02:34.230 ,3,1,0.,12.0,0.,12.0,0.,12.0,0.,12.0
1979-03-10 21:02:46.230 ,4,1,0.,12.0,0.,12.0,0.,12.0,0.,12.0
1979-03-10 21:02:58.230 ,4,1,0.,12.0,0.,12.0,0.,12.0,0.,12.0
1979-03-10 21:03:10.230 ,5,1,0.,12.0,0.,12.0,0.,12.0,0.,12.0
1979-03-10 21:03:22.230 ,5,1,0.,12.0,0.,12.0,0.,12.0,0.,12.0
1979-03-10 21:03:34.230 ,6,1,0.,12.0,0.,12.0,0.,12.0,0.,12.0
1979-03-10 21:03:46.230 ,6,1,0.,12.0,0.,12.0,0.,12.0,0.,12.0
1979-03-10 21:03:58.230 ,6,0,0.,12.0,0.,12.0,0.,12.0,0.,12.0
1979-03-10 21:04:10.230 ,6,0,,0,,0,,0,,0
1979-03-10 21:04:22.230 ,7,1,0.,12.0,0.,12.0,0.,12.0,0.,12.0
1979-03-10 21:04:34.230 ,7,1,0.,12.0,0.,12.0,0.,12.0,0.,12.0
1979-03-10 21:04:46.230 ,6,1,0.,12.0,0.,12.0,0.,12.0,0.,12.0
1979-03-10 21:04:58.230 ,6,1,0.,12.0,0.,12.0,0.,12.0,0.,12.0
1979-03-10 21:05:10.230 ,5,1,0.,12.0,0.,12.0,0.,12.0,0.,12.0
1979-03-10 21:05:22.230 ,5,1,0.,12.0,0.,12.0,0.,12.0,0.,12.0
1979-03-10 21:05:34.230 ,4,1,0.,12.0,0.,12.0,0.,12.0,0.,12.0
1979-03-10 21:05:46.230 ,4,1,0.,12.0,0.,12.0,0.,12.0,0.,12.0
1979-03-10 21:05:58.230 ,3,1,0.,12.0,0.,12.0,0.,12.0,0.,12.0
1979-03-10 21:06:10.230 ,3,1,0.,12.0,0.,12.0,0.,12.0,0.,12.0
1979-03-10 21:06:22.230 ,2,1,0.,12.0,0.,12.0,0.,12.0,0.,12.0
1979-03-10 21:06:34.230 ,2,1,0.,12.0,0.,12.0,0.,12.0,0.,12.0
1979-03-10 21:06:46.230 ,1,1,0.,12.0,0.,12.0,0.,12.0,0.,12.0
1979-03-10 21:06:58.230 ,1,1,0.,12.0,0.,12.0,0.,12.0,0.,12.0
1979-03-10 21:07:10.230 ,0,1,0.,12.0,0.,12.0,0.,12.0,0.,12.0
1979-03-10 21:07:22.230 ,0,1,0.,12.0,0.,12.0,0.,12.0,0.,12.0
1979-03-10 21:07:34.230 ,0,1,0.,12.0,0.,12.0,0.,12.0,0.,12.0
1979-03-10 21:07:46.230 ,0,1,0.,12.0,0.,12.0,0.,12.0,0.,12.0
1979-03-10 21:07:58.230 ,1,1,0.,12.0,0.,12.0,0.,12.0,0.,12.0
1979-03-10 21:08:10.230 ,1,1,0.,12.0,0.,12.0,0.,12.0,0.,12.0
1979-03-10 21:08:22.230 ,2,1,0.,12.0,0.,12.0,0.,12.0,0.,12.0
1979-03-10 21:08:34.230 ,2,1,0.,12.0,0.,12.0,0.,12.0,0.,12.0
1979-03-10 21:08:46.230 ,3,1,0.,12.0,0.,12.0,0.,12.0,0.,12.0
1979-03-10 21:08:58.230 ,3,1,0.,12.0,0.,12.0,0.,12.0,0.,12.0
1979-03-10 21:09:10.230 ,4,1,0.,12.0,0.,12.0,0.,12.0,0.,12.0
1979-03-10 21:09:22.230 ,4,1,0.,12.0,0.,12.0,0.,12.0,0.,12.0
1979-03-10 21:09:34.230 ,5,1,0.,12.0,0.,12.0,0.,12.0,0.,12.0
1979-03-10 21:09:46.230 ,5,1,0.,12.0,0.,12.0,0.,12.0,0.,12.0
1979-03-10 21:09:58.230 ,6,1,0.,12.0,0.,12.0,0.,12.0,0.,12.0
1979-03-10 21:10:10.230 ,6,1,0.,12.0,0.,12.0,0.,12.0,0.,12.0
1979-03-10 21:10:22.230 ,7,1,0.,12.0,0.,12.0,0.,12.0,0.,12.0
1979-03-10 21:10:34.230 ,7,1,0.,12.0,0.,12.0,0.,12.0,0.,12.0
1979-03-10 21:10:46.230 ,7,1,0.,12.0,0.,12.0,0.,12.0,0.,12.0
1979-03-10 21:10:58.230 ,7,1,0.,12.0,0.,12.0,0.,12.0,0.,12.0
1979-03-10 21:11:10.230 ,6,1,0.,12.0,0.,12.0,0.,12.0,0.,12.0
1979-03-10 21:11:22.230 ,6,1,0.,12.0,0.,12.0,0.,12.0,0.,12.0
1979-03-10 21:11:34.230 ,5,1,0.,12.0,0.,12.0,0.,12.0,0.,12.0
1979-03-10 21:11:46.230 ,5,1,0.,12.0,0.,12.0,0.,12.0,0.,12.0
1979-03-10 21:11:58.230 ,4,1,0.,12.0,0.,12.0,0.,12.0,0.,12.0
1979-03-10 21:12:10.230 ,4,1,0.,12.0,0.,12.0,0.,12.0,0.,12.0
1979-03-10 21:12:22.230 ,3,1,0.,12.0,0.,12.0,0.,12.0,0.,12.0
1979-03-10 21:12:34.230 ,3,1,0.,12.0,0.,12.0,0.,12.0,0.,12.0
1979-03-10 21:12:46.230 ,2,1,0.,12.0,0.,12.0,0.,12.0,0.,12.0
1979-03-10 21:12:58.230 ,2,1,0.,12.0,0.,12.0,0.,12.0,0.,12.0
1979-03-10 21:13:10.230 ,1,1,0.,12.0,0.,12.0,0.,12.0,0.,12.0
1979-03-10 21:13:22.230 ,1,1,0.,12.0,0.,12.0,0.,12.0,0.,12.0
1979-03-10 21:13:34.230 ,0,1,0.,12.0,0.,12.0,0.,12.0,0.,12.0
1979-03-10 21:13:46.230 ,0,1,0.,12.0,0.,12.0,0.,12.0,0.,12.0
1979-03-10 21:13:58.230 ,0,1,0.,12.0,0.,12.0,0.,12.0,0.,12.0
1979-03-10 21:14:10.230 ,0,1,0.,12.0,0.,12.0,0.,12.0,0.,12.0
1979-03-10 21:14:22.230 ,1,1,0.,12.0,0.,12.0,0.,12.0,0.,12.0
1979-03-10 21:14:34.230 ,1,1,0.,12.0,0.,12.0,0.,12.0,0.,12.0
1979-03-10 21:14:46.230 ,2,1,0.,12.0,0.,12.0,0.,12.0,0.,12.0
1979-03-10 21:14:58.230 ,2,1,0.,12.0,0.,12.0,0.,12.0,0.,12.0
1979-03-10 21:15:10.230 ,3,1,0.,12.0,0.,12.0,0.,12.0,0.,12.0
1979-03-10 21:15:22.230 ,3,1,0.,12.0,0.,12.0,0.,12.0,0.,12.0
1979-03-10 21:15:34.230 ,4,1,0.,12.0,0.,12.0,0.,12.0,0.,12.0
1979-03-10 21:15:46.230 ,4,1,0.,12.0,0.,12.0,0.,12.0,0.,12.0
1979-03-10 21:15:58.230 ,5,1,0.,12.0,0.,12.0,0.,12.0,0.,12.0
1979-03-10 21:16:10.230 ,5,1,0.,12.0,0.,12.0,0.,12.0,0.,12.0
1979-03-10 21:16:22.230 ,6,1,0.,12.0,0.,12.0,0.,12.0,0.,12.0
1979-03-10 21:16:34.230 ,6,1,0.,12.0,0.,12.0,0.,12.0,0.,12.0
1979-03-10 21:16:46.230 ,7,1,0.,12.0,0.,12.0,0.,12.0,0.,12.0
1979-03-10 21:16:58.230 ,7,1,0.,12.0,0.,12.0,0.,12.0,0.,12.0
1979-03-10 21:17:10.230 ,7,1,0.,12.0,0.,12.0,0.,12.0,0.,12.0
1979-03-10 21:17:22.230 ,7,1,0.,12.0,0.,12.0,0.,12.0,0.,12.0
1979-03-10 21:17:34.230 ,6,1,0.,12.0,0.,12.0,0.,12.0,0.,12.0
1979-03-10 21:17:46.230 ,6,1,0.,12.0,0.,12.0,0.,12.0,0.,12.0
1979-03-10 21:17:58.230 ,5,1,0.,12.0,0.,12.0,0.,12.0,0.,12.0
1979-03-10 21:18:10.230 ,5,1,0.,12.0,0.,12.0,0.,12.0,0.,12.0
1979-03-10 21:18:22.230 ,4,1,0.,12.0,0.,12.0,0.,12.0,0.,12.0
1979-03-10 21:18:34.230 ,4,1,0.,12.0,0.,12.0,0.,12.0,0.,12.0
1979-03-10 21:18:46.230 ,3,1,0.,12.0,0.,12.0,0.,12.0,0.,12.0
1979-03-10 21:18:58.230 ,3,1,0.,12.0,0.,12.0,0.,12.0,0.,12.0
1979-03-10 21:19:10.230 ,2,1,0.,12.0,0.,12.0,0.,12.0,0.,12.0
1979-03-10 21:19:22.230 ,2,1,0.,12.0,0.,12.0,0.,12.0,0.,12.0
1979-03-10 21:19:34.230 ,1,1,0.,12.0,0.,12.0,0.,12.0,0.,12.0
1979-03-10 21:19:46.230 ,1,1,0.,12.0,0.,12.0,0.,12.0,0.,12.0
1979-03-10 21:19:58.230 ,0,1,0.,12.0,0.,12.0,0.,12.0,0.,12.0
1979-03-10 21:20:10.230 ,0,1,0.,12.0,0.,12.0,0.,12.0,0.,12.0
1979-03-10 21:20:22.230 ,0,1,0.,12.0,0.,12.0,0.,12.0,0.,12.0
1979-03-10 21:20:34.230 ,0,1,0.,12.0,0.,12.0,0.,12.0,0.,12.0
1979-03-10 21:20:46.230 ,1,1,0.,12.0,0.,12.0,0.,12.0,0.,12.0
1979-03-10 21:20:58.230 ,1,1,0.,12.0,0.,12.0,0.,12.0,0.,12.0
1979-03-10 21:21:10.230 ,2,1,0.,12.0,0.,12.0,0.,12.0,0.,12.0
1979-03-10 21:21:22.230 ,2,1,0.,12.0,0.,12.0,0.,12.0,0.,12.0
1979-03-10 21:21:34.230 ,3,1,0.,12.0,0.,12.0,0.,12.0,0.,12.0
1979-03-10 21:21:46.230 ,3,1,0.,12.0,0.,12.0,0.,12.0,0.,12.0
1979-03-10 21:21:58.230 ,4,1,0.,12.0,0.,12.0,0.,12.0,0.,12.0
1979-03-10 21:22:10.230 ,4,1,0.,12.0,0.,12.0,0.,12.0,0.,12.0
1979-03-10 21:22:22.230 ,5,1,0.,12.0,0.,12.0,0.,12.0,0.,12.0
1979-03-10 21:22:34.230 ,5,1,0.,12.0,0.,12.0,0.,12.0,0.,12.0
1979-03-10 21:22:46.230 ,6,1,0.,12.0,0.,12.0,0.,12.0,0.,12.0
1979-03-10 21:22:58.230 ,6,1,0.,12.0,0.,12.0,0.,12.0,0.,12.0
1979-03-10 21:23:10.230 ,7,1,0.,12.0,0.,12.0,0.,12.0,0.,12.0
1979-03-10 21:23:22.230 ,7,1,0.,12.0,0.,12.0,0.,12.0,0.,12.0
1979-03-10 21:23:34.230 ,7,1,0.,12.0,0.,12.0,0.,12.0,0.,12.0
1979-03-10 21:23:46.230 ,7,1,0.,12.0,0.,12.0,0.,12.0,0.,12.0
1979-03-10 21:23:58.230 ,6,1,0.,12.0,0.,12.0,0.,12.0,0.,12.0
1979-03-10 21:24:10.230 ,6,1,0.,12.0,0.,12.0,0.,12.0,0.,12.0
1979-03-10 21:24:22.230 ,5,1,0.,12.0,0.,12.0,0.,12.0,0.,12.0
1979-03-10 21:24:34.230 ,5,1,0.,12.0,0.,12.0,0.,12.0,0.,12.0
1979-03-10 21:24:46.230 ,4,1,0.,12.0,0.,12.0,0.,12.0,0.,12.0
1979-03-10 21:24:58.230 ,4,1,0.,12.0,0.,12.0,0.,12.0,0.,12.0
1979-03-10 21:25:10.230 ,3,1,0.,12.0,0.,12.0,0.,12.0,0.,12.0
1979-03-10 21:25:22.230 ,3,1,0.,12.0,0.,12.0,0.,12.0,0.,12.0
1979-03-10 21:25:34.230 ,2,1,0.,12.0,0.,12.0,0.,12.0,0.,12.0
1979-03-10 21:25:46.230 ,2,1,0.,12.0,0.,12.0,0.,12.0,0.,12.0
1979-03-10 21:25:58.230 ,1,1,0.,12.0,0.,12.0,0.,12.0,0.,12.0
1979-03-10 21:26:10.230 ,1,1,0.,12.0,0.,12.0,0.,12.0,0.,12.0
1979-03-10 21:26:22.230 ,0,1,0.,12.0,0.,12.0,0.,12.0,0.,12.0
1979-03-10 21:26:34.230 ,0,1,0.,12.0,0.,12.0,0.,12.0,0.,12.0
1979-03-10 21:26:46.230 ,0,1,0.,12.0,0.,12.0,0.,12.0,0.,12.0
1979-03-10 21:26:58.230 ,0,1,0.,12.0,0.,12.0,0.,12.0,0.,12.0
1979-03-10 21:27:10.230 ,1,1,0.,12.0,0.,12.0,0.,12.0,0.,12.0
1979-03-10 21:27:22.230 ,1,1,0.,12.0,0.,12.0,0.,12.0,0.,12.0
1979-03-10 21:27:34.230 ,2,1,0.,12.0,0.,12.0,0.,12.0,0.,12.0
1979-03-10 21:27:46.230 ,2,1,0.,12.0,0.,12.0,0.,12.0,0.,12.0
1979-03-10 21:27:58.230 ,3,1,0.,12.0,0.,12.0,0.,12.0,0.,12.0
1979-03-10 21:28:10.230 ,3,1,0.,12.0,0.,12.0,0.,12.0,0.,12.0
1979-03-10 21:28:22.230 ,4,1,0.,12.0,0.,12.0,0.,12.0,0.,12.0
1979-03-10 21:28:34.230 ,4,1,0.,12.0,0.,12.0,0.,12.0,0.,12.0
1979-03-10 21:28:46.230 ,5,1,0.,12.0,0.,12.0,0.,12.0,0.,12.0
1979-03-10 21:28:58.230 ,5,1,0.,12.0,0.,12.0,0.,12.0,0.,12.0
1979-03-10 21:29:10.230 ,6,1,0.,12.0,0.,12.0,0.,12.0,0.,12.0
1979-03-10 21:29:22.230 ,6,1,0.,12.0,0.,12.0,0.,12.0,0.,12.0
1979-03-10 21:29:34.230 ,7,1,0.,12.0,0.,12.0,0.,12.0,0.,12.0
1979-03-10 21:29:46.230 ,7,1,0.,12.0,0.,12.0,0.,12.0,0.,12.0
1979-03-10 21:29:58.230 ,7,1,0.,12.0,0.,12.0,0.,12.0,0.,12.0
1979-03-10 21:30:10.230 ,7,1,0.,12.0,0.,12.0,0.,12.0,0.,12.0
1979-03-10 21:30:22.230 ,6,1,0.,12.0,0.,12.0,0.,12.0,0.,12.0
1979-03-10 21:30:34.230 ,6,1,0.,12.0,0.,12.0,0.,12.0,0.,12.0
1979-03-10 21:30:46.230 ,5,1,0.,12.0,0.,12.0,0.,12.0,0.,12.0
1979-03-10 21:30:58.230 ,5,1,0.,12.0,0.,12.0,0.,12.0,0.,12.0
1979-03-10 21:31:10.230 ,4,1,0.,12.0,0.,12.0,0.,12.0,0.,12.0
1979-03-10 21:31:22.230 ,4,1,0.,12.0,0.,12.0,0.,12.0,0.,12.0
1979-03-10 21:31:34.230 ,3,1,0.,12.0,0.,12.0,0.,12.0,0.,12.0
1979-03-10 21:31:46.230 ,3,1,0.,12.0,0.,12.0,0.,12.0,0.,12.0
1979-03-10 21:31:58.230 ,2,1,0.,12.0,0.,12.0,0.,12.0,0.,12.0
1979-03-10 21:32:10.230 ,2,1,0.,12.0,0.,12.0,0.,12.0,0.,12.0
1979-03-10 21:32:22.230 ,1,1,0.,12.0,0.,12.0,0.,12.0,0.,12.0
1979-03-10 21:32:34.230 ,1,1,0.,12.0,0.,12.0,0.,12.0,0.,12.0
1979-03-10 21:32:46.230 ,0,1,0.,12.0,0.,12.0,0.,12.0,0.,12.0
1979-03-10 21:32:58.230 ,0,1,0.,12.0,0.,12.0,0.,12.0,0.,12.0
1979-03-10 21:33:10.230 ,0,1,0.,12.0,0.,12.0,0.,12.0,0.,12.0
1979-03-10 21:33:22.230 ,0,1,0.,12.0,0.,12.0,0.,12.0,0.,12.0
1979-03-10 21:33:34.230 ,1,1,0.,12.0,0.,12.0,0.,12.0,0.,12.0
1979-03-10 21:33:46.230 ,1,1,0.,12.0,0.,12.0,0.,12.0,0.,12.0
1979-03-10 21:33:58.230 ,2,1,0.,12.0,0.,12.0,0.,12.0,0.,12.0
1979-03-10 21:34:10.230 ,2,1,0.,12.0,0.,12.0,0.,12.0,0.,12.0
1979-03-10 21:34:22.230 ,3,1,0.,12.0,0.,12.0,0.,12.0,0.,12.0
1979-03-10 21:34:34.230 ,3,1,0.,12.0,0.,12.0,0.,12.0,0.,12.0
1979-03-10 21:34:46.230 ,4,1,0.,12.0,0.,12.0,0.,12.0,0.,12.0
1979-03-10 21:34:58.230 ,4,1,0.,12.0,0.,12.0,0.,12.0,0.,12.0
1979-03-10 21:35:10.230 ,5,1,0.,12.0,0.,12.0,0.,12.0,0.,12.0
1979-03-10 21:35:22.230 ,5,1,0.,12.0,0.,12.0,0.,12.0,0.,12.0
1979-03-10 21:35:34.230 ,6,1,0.,12.0,0.,12.0,0.,12.0,0.,12.0
1979-03-10 21:35:46.230 ,6,1,0.,12.0,0.,12.0,0.,12.0,0.,12.0
1979-03-10 21:35:58.230 ,7,1,0.,12.0,0.,12.0,0.,12.0,0.,12.0
1979-03-10 21:36:10.230 ,7,1,0.,12.0,0.,12.0,0.,12.0,0.,12.0
1979-03-10 21:36:22.230 ,7,1,0.,12.0,0.,12.0,0.,12.0,0.,12.0
1979-03-10 21:36:34.230 ,7,1,0.,12.0,0.,12.0,0.,12.0,0.,12.0
1979-03-10 21:36:46.230 ,6,1,0.,12.0,0.,12.0,0.,12.0,0.,12.0
1979-03-10 21:36:58.230 ,6,1,0.,12.0,0.,12.0,0.,12.0,0.,12.0
1979-03-10 21:37:10.230 ,5,1,0.,12.0,0.,12.0,0.,12.0,0.,12.0
1979-03-10 21:37:22.230 ,5,1,0.,12.0,0.,12.0,0.,12.0,0.,12.0
1979-03-10 21:37:34.230 ,4,1,0.,12.0,0.,12.0,0.,12.0,0.,12.0
1979-03-10 21:37:46.230 ,4,1,0.,12.0,0.,12.0,0.,12.0,0.,12.0
1979-03-10 21:37:58.230 ,3,1,0.,12.0,0.,12.0,0.,12.0,0.,12.0
1979-03-10 21:38:10.230 ,3,1,0.,12.0,0.,12.0,0.,12.0,0.,12.0
1979-03-10 21:38:22.230 ,2,1,0.,12.0,0.,12.0,0.,12.0,0.,12.0
1979-03-10 21:38:34.230 ,2,1,0.,12.0,0.,12.0,0.,12.0,0.,12.0
1979-03-10 21:38:46.230 ,1,1,0.,12.0,0.,12.0,0.,12.0,0.,12.0
1979-03-10 21:38:58.230 ,1,1,0.,12.0,0.,12.0,0.,12.0,0.,12.0
1979-03-10 21:39:10.230 ,0,1,0.,12.0,0.,12.0,0.,12.0,0.,12.0
1979-03-10 21:39:22.230 ,0,1,0.,12.0,0.,12.0,0.,12.0,0.,12.0
1979-03-10 21:39:34.230 ,0,1,0.,12.0,0.,12.0,0.,12.0,0.,12.0
1979-03-10 21:39:46.230 ,0,1,0.,12.0,0.,12.0,0.,12.0,0.,12.0
1979-03-10 21:39:58.230 ,1,1,0.,12.0,0.,12.0,0.,12.0,0.,12.0
1979-03-10 21:40:10.230 ,1,1,0.,12.0,0.,12.0,0.,12.0,0.,12.0
1979-03-10 21:40:22.230 ,2,1,0.,12.0,0.,12.0,0.,12.0,0.,12.0
1979-03-10 21:40:34.230 ,2,1,0.,12.0,0.,12.0,0.,12.0,0.,12.0
1979-03-10 21:40:46.230 ,3,1,0.,12.0,0.,12.0,0.,12.0,0.,12.0
1979-03-10 21:40:58.230 ,3,1,0.,12.0,0.,12.0,0.,12.0,0.,12.0
1979-03-10 21:41:10.230 ,4,1,0.,12.0,0.,12.0,0.,12.0,0.,12.0
1979-03-10 21:41:22.230 ,4,1,0.,12.0,0.,12.0,0.,12.0,0.,12.0
1979-03-10 21:41:34.230 ,5,1,0.,12.0,0.,12.0,0.,12.0,0.,12.0
1979-03-10 21:41:46.230 ,5,1,0.,12.0,0.,12.0,0.,12.0,0.,12.0
1979-03-10 21:41:58.230 ,6,1,0.,12.0,0.,12.0,0.,12.0,0.,12.0
1979-03-10 21:42:10.230 ,6,1,0.,12.0,0.,12.0,0.,12.0,0.,12.0
1979-03-10 21:42:22.230 ,7,1,0.,12.0,0.,12.0,0.,12.0,0.,12.0
1979-03-10 21:42:34.230 ,7,1,0.,12.0,0.,12.0,0.,12.0,0.,12.0
1979-03-10 21:42:46.230 ,7,1,0.,12.0,0.,12.0,0.,12.0,0.,12.0
1979-03-10 21:42:58.230 ,7,1,0.,12.0,0.,12.0,0.,12.0,0.,12.0
1979-03-10 21:43:10.230 ,6,1,0.,12.0,0.,12.0,0.,12.0,0.,12.0
1979-03-10 21:43:22.230 ,6,1,0.,12.0,0.,12.0,0.,12.0,0.,12.0
1979-03-10 21:43:34.230 ,5,1,0.,12.0,0.,12.0,0.,12.0,0.,12.0
1979-03-10 21:43:46.230 ,5,1,0.,12.0,0.,12.0,0.,12.0,0.,12.0
1979-03-10 21:43:58.230 ,4,1,0.,12.0,0.,12.0,0.,12.0,0.,12.0
1979-03-10 21:44:10.230 ,4,1,0.,12.0,0.,12.0,0.,12.0,0.,12.0
1979-03-10 21:44:22.230 ,3,1,0.,12.0,0.,12.0,0.,12.0,0.,12.0
1979-03-10 21:44:34.230 ,3,1,0.,12.0,0.,12.0,0.,12.0,0.,12.0
1979-03-10 21:44:46.230 ,2,1,0.,12.0,0.,12.0,0.,12.0,0.,12.0
1979-03-10 21:44:58.230 ,2,1,0.,12.0,0.,12.0,0.,12.0,0.,12.0
1979-03-10 21:45:10.230 ,1,1,0.,12.0,0.,12.0,0.,12.0,0.,12.0
1979-03-10 21:45:22.230 ,1,1,0.,12.0,0.,12.0,0.,12.0,0.,12.0
1979-03-10 21:45:34.230 ,0,1,0.,12.0,0.,12.0,0.,12.0,0.,12.0
1979-03-10 21:45:46.230 ,0,1,0.,12.0,0.,12.0,0.,12.0,0.,12.0
1979-03-10 21:45:58.230 ,0,1,0.,12.0,0.,12.0,0.,12.0,0.,12.0
1979-03-10 21:46:10.230 ,0,1,0.,12.0,0.,12.0,0.,12.0,0.,12.0
1979-03-10 21:46:22.230 ,1,1,0.,12.0,0.,12.0,0.,12.0,0.,12.0
1979-03-10 21:46:34.230 ,1,1,0.,12.0,0.,12.0,0.,12.0,0.,12.0
1979-03-10 21:46:46.230 ,2,1,0.,12.0,0.,12.0,0.,12.0,0.,12.0
1979-03-10 21:46:58.230 ,2,1,0.,12.0,0.,12.0,0.,12.0,0.,12.0
1979-03-10 21:47:10.230 ,3,1,0.,12.0,0.,12.0,0.,12.0,0.,12.0
1979-03-10 21:47:22.230 ,3,1,0.,12.0,0.,12.0,0.,12.0,0.,12.0
1979-03-10 21:47:34.230 ,4,1,0.,12.0,0.,12.0,0.,12.0,0.,12.0
1979-03-10 21:47:46.230 ,4,1,0.,12.0,0.,12.0,0.,12.0,0.,12.0
1979-03-10 21:47:58.230 ,5,1,0.,12.0,0.,12.0,0.,12.0,0.,12.0
1979-03-10 21:48:10.230 ,5,1,0.,12.0,0.,12.0,0.,12.0,0.,12.0
1979-03-10 21:48:22.230 ,6,1,0.,12.0,0.,12.0,0.,12.0,0.,12.0
1979-03-10 21:48:34.230 ,6,1,0.,12.0,0.,12.0,0.,12.0,0.,12.0
1979-03-10 21:48:46.230 ,7,1,0.,12.0,0.,12.0,0.,12.0,0.,12.0
1979-03-10 21:48:58.230 ,7,1,0.,12.0,0.,12.0,0.,12.0,0.,12.0
1979-03-10 21:49:10.230 ,7,1,0.,12.0,0.,12.0,0.,12.0,0.,12.0
1979-03-10 21:49:22.230 ,7,1,0.,12.0,0.,12.0,0.,12.0,0.,12.0
1979-03-10 21:49:34.230 ,6,1,0.,12.0,0.,12.0,0.,12.0,0.,12.0
1979-03-10 21:49:46.230 ,6,1,0.,12.0,0.,12.0,0.,12.0,0.,12.0
1979-03-10 21:49:58.230 ,0,0,0.,12.0,0.,12.0,0.,12.0,0.,12.0
1979-03-10 21:50:10.230 ,0,0,0.,12.0,0.,12.0,0.,12.0,0.,12.0
1979-03-10 21:50:19.830 ,0,0,,0,,0,,0,,0
1979-03-10 21:50:31.830 ,0,0,,0,,0,,0,,0
1979-03-10 21:50:22.230 ,0,0,0.,12.0,0.,12.0,0.,12.0,0.,12.0
1979-03-10 21:50:34.230 ,0,0,0.,12.0,0.,12.0,0.,12.0,0.,12.0
1979-03-10 21:50:46.230 ,3,1,0.,12.0,0.,12.0,0.,12.0,0.,12.0
1979-03-10 21:50:58.230 ,3,1,0.,12.0,0.,12.0,0.,12.0,0.,12.0
1979-03-10 21:51:10.230 ,2,1,0.,12.0,0.,12.0,0.,12.0,0.,12.0
1979-03-10 21:51:22.230 ,2,1,0.,12.0,0.,12.0,0.,12.0,0.,12.0
1979-03-10 21:51:34.230 ,1,1,0.,12.0,0.,12.0,0.,12.0,0.,12.0
1979-03-10 21:51:46.230 ,1,1,0.,12.0,0.,12.0,0.,12.0,0.,12.0
1979-03-10 21:51:58.230 ,0,1,0.,12.0,0.,12.0,0.,12.0,0.,12.0
1979-03-10 21:52:10.230 ,0,1,0.,12.0,0.,12.0,0.,12.0,0.,12.0
1979-03-10 21:52:22.230 ,0,1,0.,12.0,0.,12.0,0.,12.0,0.,12.0
1979-03-10 21:52:34.230 ,0,1,0.,12.0,0.,12.0,0.,12.0,0.,12.0
1979-03-10 21:52:46.230 ,1,1,0.,12.0,0.,12.0,0.,12.0,0.,12.0
1979-03-10 21:52:58.230 ,1,1,0.,12.0,0.,12.0,0.,12.0,0.,12.0
1979-03-10 21:53:10.230 ,2,1,0.,12.0,0.,12.0,0.,12.0,0.,12.0
1979-03-10 21:53:22.230 ,2,1,0.,12.0,0.,12.0,0.,12.0,0.,12.0
1979-03-10 21:53:34.230 ,3,1,0.,12.0,0.,12.0,0.,12.0,0.,12.0
1979-03-10 21:53:46.230 ,3,1,0.,12.0,0.,12.0,0.,12.0,0.,12.0
1979-03-10 21:53:58.230 ,4,1,0.,12.0,0.,12.0,0.,12.0,0.,12.0
1979-03-10 21:54:10.230 ,4,1,0.,12.0,0.,12.0,0.,12.0,0.,12.0
1979-03-10 21:54:22.230 ,5,1,0.,12.0,0.,12.0,0.,12.0,0.,12.0
1979-03-10 21:54:34.230 ,5,1,0.,12.0,0.,12.0,0.,12.0,0.,12.0
1979-03-10 21:54:46.230 ,6,1,0.,12.0,0.,12.0,0.,12.0,0.,12.0
1979-03-10 21:54:58.230 ,6,1,0.,12.0,0.,12.0,0.,12.0,0.,12.0
1979-03-10 21:55:10.230 ,7,1,0.,12.0,0.,12.0,0.,12.0,0.,12.0
1979-03-10 21:55:22.230 ,7,1,0.,12.0,0.,12.0,0.,12.0,0.,12.0
1979-03-10 21:55:34.230 ,7,1,0.,12.0,0.,12.0,0.,12.0,0.,12.0
1979-03-10 21:55:46.230 ,7,1,0.,12.0,0.,12.0,0.,12.0,0.,12.0
1979-03-10 21:55:58.230 ,6,1,0.,12.0,0.,12.0,0.,12.0,0.,12.0
1979-03-10 21:56:10.230 ,6,1,0.,12.0,0.,12.0,0.,12.0,0.,12.0
1979-03-10 21:56:22.230 ,5,1,0.,12.0,0.,12.0,0.,12.0,0.,12.0
1979-03-10 21:56:34.230 ,5,1,0.,12.0,0.,12.0,0.,12.0,0.,12.0
1979-03-10 21:56:46.230 ,4,1,0.,12.0,0.,12.0,0.,12.0,0.,12.0
1979-03-10 21:56:58.230 ,4,1,0.,12.0,0.,12.0,0.,12.0,0.,12.0
1979-03-10 21:57:10.230 ,3,1,0.,12.0,0.,12.0,0.,12.0,0.,12.0
1979-03-10 21:57:22.230 ,3,1,0.,12.0,0.,12.0,0.,12.0,0.,12.0
1979-03-10 21:57:34.230 ,2,1,0.,12.0,0.,12.0,0.,12.0,0.,12.0
1979-03-10 21:57:46.230 ,2,1,0.,12.0,0.,12.0,0.,12.0,0.,12.0
1979-03-10 21:57:58.230 ,1,1,0.,12.0,0.,12.0,0.,12.0,0.,12.0
1979-03-10 21:58:10.230 ,1,1,0.,12.0,0.,12.0,0.,12.0,0.,12.0
1979-03-10 21:58:22.230 ,0,1,0.,12.0,0.,12.0,0.,12.0,0.,12.0
1979-03-10 21:58:34.230 ,0,1,0.,12.0,0.,12.0,0.,12.0,0.,12.0
1979-03-10 21:58:46.230 ,0,1,0.,12.0,0.,12.0,0.,12.0,0.,12.0
1979-03-10 21:58:58.230 ,0,1,0.,12.0,0.,12.0,0.,12.0,0.,12.0
1979-03-10 21:59:10.230 ,1,1,0.,12.0,0.,12.0,0.,12.0,0.,12.0
1979-03-10 21:59:22.230 ,1,1,0.,12.0,0.,12.0,0.,12.0,0.,12.0
1979-03-10 21:59:34.230 ,2,1,0.,12.0,0.,12.0,0.,12.0,0.,12.0
1979-03-10 21:59:46.230 ,2,1,0.,12.0,0.,12.0,0.,12.0,0.,12.0
1979-03-10 21:59:58.230 ,3,1,0.,12.0,0.,12.0,0.,12.0,0.,12.0
1979-03-10 22:00:10.230 ,3,1,0.,12.0,0.,12.0,0.,12.0,0.,12.0
1979-03-10 22:00:22.230 ,4,1,0.,12.0,0.,12.0,0.,12.0,0.,12.0
1979-03-10 22:00:34.230 ,4,1,0.,12.0,0.,12.0,0.,12.0,0.,12.0
1979-03-10 22:00:46.230 ,5,1,0.,12.0,0.,12.0,0.,12.0,0.,12.0
1979-03-10 22:00:58.230 ,5,1,0.,12.0,0.,12.0,0.,12.0,0.,12.0
1979-03-10 22:01:10.230 ,6,1,0.,12.0,0.,12.0,0.,12.0,0.,12.0
1979-03-10 22:01:22.230 ,6,1,0.,12.0,0.,12.0,0.,12.0,0.,12.0
1979-03-10 22:01:34.230 ,7,1,0.,12.0,0.,12.0,0.,12.0,0.,12.0
1979-03-10 22:01:46.230 ,7,1,0.,12.0,0.,12.0,0.,12.0,0.,12.0
1979-03-10 22:01:58.230 ,7,1,0.,12.0,0.,12.0,0.,12.0,0.,12.0
1979-03-10 22:02:10.230 ,7,1,0.,12.0,0.,12.0,0.,12.0,0.,12.0
1979-03-10 22:02:22.230 ,6,1,0.,12.0,0.,12.0,0.,12.0,0.,12.0
1979-03-10 22:02:34.230 ,6,1,0.,12.0,0.,12.0,0.,12.0,0.,12.0
1979-03-10 22:02:46.230 ,5,1,0.,12.0,0.,12.0,0.,12.0,0.,12.0
1979-03-10 22:02:58.230 ,5,1,0.,12.0,0.,12.0,0.,12.0,0.,12.0
1979-03-10 22:03:10.230 ,4,1,0.,12.0,0.,12.0,0.,12.0,0.,12.0
1979-03-10 22:03:22.230 ,4,1,0.,12.0,0.,12.0,0.,12.0,0.,12.0
1979-03-10 22:03:34.230 ,3,1,0.,12.0,0.,12.0,0.,12.0,0.,12.0
1979-03-10 22:03:46.230 ,3,1,0.,12.0,0.,12.0,0.,12.0,0.,12.0
1979-03-10 22:03:58.230 ,2,1,0.,12.0,0.,12.0,0.,12.0,0.,12.0
1979-03-10 22:04:10.230 ,2,1,0.,12.0,0.,12.0,0.,12.0,0.,12.0
1979-03-10 22:04:22.230 ,1,1,0.,12.0,0.,12.0,0.,12.0,0.,12.0
1979-03-10 22:04:34.230 ,1,1,0.,12.0,0.,12.0,0.,12.0,0.,12.0
1979-03-10 22:04:46.230 ,0,1,0.,12.0,0.,12.0,0.,12.0,0.,12.0
1979-03-10 22:04:58.230 ,0,1,0.,12.0,0.,12.0,0.,12.0,0.,12.0
1979-03-10 22:05:10.230 ,0,1,0.,12.0,0.,12.0,0.,12.0,0.,12.0
1979-03-10 22:05:22.230 ,0,1,0.,12.0,0.,12.0,0.,12.0,0.,12.0
1979-03-10 22:05:34.230 ,1,1,0.,12.0,0.,12.0,0.,12.0,0.,12.0
1979-03-10 22:05:46.230 ,1,1,0.,12.0,0.,12.0,0.,12.0,0.,12.0
1979-03-10 22:05:58.230 ,2,1,0.,12.0,0.,12.0,0.,12.0,0.,12.0
1979-03-10 22:06:10.230 ,2,1,0.,12.0,0.,12.0,0.,12.0,0.,12.0
1979-03-10 22:06:22.230 ,3,1,0.,12.0,0.,12.0,0.,12.0,0.,12.0
1979-03-10 22:06:34.230 ,3,1,0.,12.0,0.,12.0,0.,12.0,0.,12.0
1979-03-10 22:06:46.230 ,4,1,0.,12.0,0.,12.0,0.,12.0,0.,12.0
1979-03-10 22:06:58.230 ,4,1,0.,12.0,0.,12.0,0.,12.0,0.,12.0
1979-03-10 22:07:10.230 ,5,1,0.,12.0,0.,12.0,0.,12.0,0.,12.0
1979-03-10 22:07:22.230 ,5,1,0.,12.0,0.,12.0,0.,12.0,0.,12.0
1979-03-10 22:07:34.230 ,6,1,0.,12.0,0.,12.0,0.,12.0,0.,12.0
1979-03-10 22:07:46.230 ,6,1,0.,12.0,0.,12.0,0.,12.0,0.,12.0
1979-03-10 22:07:58.230 ,7,1,0.,12.0,0.,12.0,0.,12.0,0.,12.0
1979-03-10 22:08:10.230 ,7,1,0.,12.0,0.,12.0,0.,12.0,0.,12.0
1979-03-10 22:08:22.230 ,7,1,0.,12.0,0.,12.0,0.,12.0,0.,12.0
1979-03-10 22:08:34.230 ,7,1,0.,12.0,0.,12.0,0.,12.0,0.,12.0
1979-03-10 22:08:46.230 ,6,1,0.,12.0,0.,12.0,0.,12.0,0.,12.0
1979-03-10 22:08:58.230 ,6,1,0.,12.0,0.,12.0,0.,12.0,0.,12.0
1979-03-10 22:09:10.230 ,5,1,0.,12.0,0.,12.0,0.,12.0,0.,12.0
1979-03-10 22:09:22.230 ,5,1,0.,12.0,0.,12.0,0.,12.0,0.,12.0
1979-03-10 22:09:34.230 ,4,1,0.,12.0,0.,12.0,0.,12.0,0.,12.0
1979-03-10 22:09:46.230 ,4,1,0.,12.0,0.,12.0,0.,12.0,0.,12.0
1979-03-10 22:09:58.230 ,3,1,0.,12.0,0.,12.0,0.,12.0,0.,12.0
1979-03-10 22:10:10.230 ,3,1,0.,12.0,0.,12.0,0.,12.0,0.,12.0
1979-03-10 22:10:22.230 ,2,1,0.,12.0,0.,12.0,0.,12.0,0.,12.0
1979-03-10 22:10:34.230 ,2,1,0.,12.0,0.,12.0,0.,12.0,0.,12.0
1979-03-10 22:10:46.230 ,1,1,0.,12.0,0.,12.0,0.,12.0,0.,12.0
1979-03-10 22:10:58.230 ,1,1,0.,12.0,0.,12.0,0.,12.0,0.,12.0
1979-03-10 22:11:10.230 ,0,1,0.,12.0,0.,12.0,0.,12.0,0.,12.0
1979-03-10 22:11:22.230 ,0,1,0.,12.0,0.,12.0,0.,12.0,0.,12.0
1979-03-10 22:11:34.230 ,0,1,0.,12.0,0.,12.0,0.,12.0,0.,12.0
1979-03-10 22:11:46.230 ,0,1,0.,12.0,0.,12.0,0.,12.0,0.,12.0
1979-03-10 22:11:58.230 ,1,1,0.,12.0,0.,12.0,0.,12.0,0.,12.0
1979-03-10 22:12:10.230 ,1,1,0.,12.0,0.,12.0,0.,12.0,0.,12.0
1979-03-10 22:12:22.230 ,2,1,0.,12.0,0.,12.0,0.,12.0,0.,12.0
1979-03-10 22:12:34.230 ,2,1,0.,12.0,0.,12.0,0.,12.0,0.,12.0
1979-03-10 22:12:46.230 ,3,1,0.,12.0,0.,12.0,0.,12.0,0.,12.0
1979-03-10 22:12:58.230 ,3,1,0.,12.0,0.,12.0,0.,12.0,0.,12.0
1979-03-10 22:13:10.230 ,4,1,0.,12.0,0.,12.0,0.,12.0,0.,12.0
1979-03-10 22:13:22.230 ,4,1,0.,12.0,0.,12.0,0.,12.0,0.,12.0
1979-03-10 22:13:34.230 ,5,1,0.,12.0,0.,12.0,0.,12.0,0.,12.0
1979-03-10 22:13:46.230 ,5,1,0.,12.0,0.,12.0,0.,12.0,0.,12.0
1979-03-10 22:13:58.230 ,6,1,0.,12.0,0.,12.0,0.,12.0,0.,12.0
1979-03-10 22:14:10.230 ,6,1,0.,12.0,0.,12.0,0.,12.0,0.,12.0
1979-03-10 22:14:22.230 ,7,1,0.,12.0,0.,12.0,0.,12.0,0.,12.0
1979-03-10 22:14:34.230 ,7,1,0.,12.0,0.,12.0,0.,12.0,0.,12.0
1979-03-10 22:14:46.230 ,7,1,0.,12.0,0.,12.0,0.,12.0,0.,12.0
1979-03-10 22:14:58.230 ,7,1,0.,12.0,0.,12.0,0.,12.0,0.,12.0
1979-03-10 22:15:10.230 ,6,1,0.,12.0,0.,12.0,0.,12.0,0.,12.0
1979-03-10 22:15:22.230 ,6,1,0.,12.0,0.,12.0,0.,12.0,0.,12.0
1979-03-10 22:15:34.230 ,5,1,0.,12.0,0.,12.0,0.,12.0,0.,12.0
1979-03-10 22:15:46.230 ,5,1,0.,12.0,0.,12.0,0.,12.0,0.,12.0
1979-03-10 22:15:58.230 ,4,1,0.,12.0,0.,12.0,0.,12.0,0.,12.0
1979-03-10 22:16:10.230 ,4,1,0.,12.0,0.,12.0,0.,12.0,0.,12.0
1979-03-10 22:16:22.230 ,3,1,0.,12.0,0.,12.0,0.,12.0,0.,12.0
1979-03-10 22:16:34.230 ,3,1,0.,12.0,0.,12.0,0.,12.0,0.,12.0
1979-03-10 22:16:46.230 ,2,1,0.,12.0,0.,12.0,0.,12.0,0.,12.0
1979-03-10 22:16:58.230 ,2,1,0.,12.0,0.,12.0,0.,12.0,0.,12.0
1979-03-10 22:17:10.230 ,1,1,0.,12.0,0.,12.0,0.,12.0,0.,12.0